Вернуться в каталог

OFEQ 19

АктивенВоенныеVLEO
NORAD 65432·PAYLOAD·🇮🇱 Israel

Запущен Sep 2, 2025 с Palmachim Airbase

Loading…

Ближайшие Пролёты (ближайшие 24 часа)

TLE

УстаревшееSource: Mike McCants

Эпоха: Apr 23, 2026, 01:11 UTC

1 65432U 25193A   26113.04990462 0.00000000  00000-0  00000-0 0    00
2 65432 139.1454 248.1956 0067143 275.3630  83.9536 15.10508836    02

Отслеживайте OFEQ 19 в реальном времени с AllMySat

Download on the App Store